Regional Weather Roundup
Issued by NWS Green Bay, WI

Home | Current Version | Previous Version | Text Only | Print | Product List | Glossary On
Versions: 1 2 3 4 5 6 7 8 9 10 11 12 13 14 15 16 17 18 19 20 21 22 23 24 25 26 27 28 29 30 31 32 33 34 35 36 37 38 39 40 41 42 43 44 45 46 47 48 49 50
653
ASUS43 KGRB 231000
RWRGRB

NORTH-CENTRAL AND NORTHEAST WISCONSIN REGIONAL WEATHER ROUNDUP
NATIONAL WEATHER SERVICE GREEN BAY WI
500 AM CDT SAT JUL 23 2016

WIZ005-009-010>012-018-019-231100-
NORTH CENTRAL WISCONSIN

CITY           SKY/WX    TMP DP  RH WIND       PRES   REMARKS
IRONWOOD       CLOUDY    57  57 100 CALM      30.01S
MANITOWISH WTR NOT AVBL
ARBOR VITAE    NOT AVBL
EAGLE RIVER    NOT AVBL
LAND O LAKES   NOT AVBL
RHINELANDER    FOG       62  61  96 CALM      30.05R VSB 3/4
PHILLIPS       NOT AVBL
ANTIGO         NOT AVBL
TOMAHAWK       NOT AVBL
MERRILL        NOT AVBL
$$

WIZ013-073-231100-
NORTHEAST WISCONSIN

CITY           SKY/WX    TMP DP  RH WIND       PRES   REMARKS
IRON MOUNTAIN  PTCLDY    58  54  86 CALM      29.99S
MARINETTE      PTCLDY    67  63  87 NW6       29.98S
$$

WIZ017-030-035>037-045-231100-
CENTRAL WISCONSIN

CITY           SKY/WX    TMP DP  RH WIND       PRES   REMARKS
MEDFORD        NOT AVBL
WAUSAU         MOCLDY    67  65  93 CALM      30.01R
MOSINEE        NOT AVBL
MARSHFIELD     PTCLDY    66  63  90 NE5       30.00S
WISC RAPIDS    CLEAR     64  62  93 SW3       30.02R FOG
STEVENS POINT  NOT AVBL
WAUPACA        NOT AVBL
SHAWANO        NOT AVBL
CLINTONVILLE   NOT AVBL
WAUTOMA        CLEAR     66  65  96 CALM      29.99S
$$

WIZ038-039-048-051-231100-
FOX VALLEY

CITY           SKY/WX    TMP DP  RH WIND       PRES   REMARKS
NWS GREEN BAY  PTCLDY    67  67 100 CALM      29.98R
APPLETON       NOT AVBL
OSHKOSH          N/A     67  65  93 CALM      29.98R
FOND DU LAC    FOG       70  68  93 SW5       29.98S VSB 1/4
$$

WIZ022-050-052-231100-
EAST CENTRAL WISCONSIN

CITY           SKY/WX    TMP DP  RH WIND       PRES   REMARKS
EPHRAIM        NOT AVBL
WASHINGTON ISL NOT AVBL
STURGEON BAY   CLOUDY    69  68  96 CALM      29.99R
MANITOWOC      NOT AVBL
SHEBOYGAN      CLEAR     70  68  93 CALM      29.97S
$$

LMZ563-521-522-541>543-231100-
LAKESHORE

STATION/POSITION TIME  TEMP    WIND        PRES    VSBY  WAVE
                       AIR SEA DIR/SP/G                  HT/PER
                 (UTC) (F)     (DEG/KT/KT) (MB)    (MI)  (FT/S)
SHEBOYGAN LKSHOR 0900   75     300/  2/  2 1014.7S
KEWAUNEE LKSHORE 0900   71     300/  5/  6 1014.2S
NORTHPORT PIER   0900   73     290/  5/  7 1014.6R
N MID LAKE BUOY  0850   71 68  270/  6/  6 1013.6R         1/ 5
S GREEN BAY BUOY 0900   74 74  230/  2/  2   N/A
CHAMBERS ISLAND  0900   71     270/  3/  4 1014.6S
MENOMINEE LKSHOR 0900   72     290/  5/  6 1013.8R
$$




USA.gov is the U.S. government's official web portal to all federal, state and local government web resources and services.